CFG2TJ EDDF-LEIB

Flight info

Callsign CFG2TJ
Flight time 2h 3m
Altitude 35000
Route ANEKI6E ANEKI Y163 HERBI Y164 MOPAN DCT LUTIX DCT BENOT DCT NEMOS DCT GEVEA DCT INCUS DCT BALSI DCT RETNO DCT TUPOX DCT MTG DCT DIVKO DCT VATIR DCT PIVUS DCT SULID DCT DIMIB DCT POS
Aircraft A321/M-SDE3FGHIRWY/LB1

Departure

Time 2026-05-01 13:19
Airport Frankfurt Main Airport (EDDF)

Arrival

Time 2026-05-01 15:22
Airport Ibiza Airport (LEIB)
Time Latitude Longitude Altitude Speed Heading
2026-05-01 12:48 50.03699 8.54138 348 ft 0 kts 159°
2026-05-01 13:15 50.03699 8.54139 343 ft 1 kts 159°
2026-05-01 13:15 50.03664 8.54159 345 ft 9 kts 159°
2026-05-01 13:15 50.03611 8.54116 347 ft 9 kts 239°
2026-05-01 13:15 50.03585 8.54011 336 ft 13 kts 250°
2026-05-01 13:16 50.03548 8.53856 336 ft 17 kts 250°
2026-05-01 13:16 50.03502 8.53666 338 ft 21 kts 250°
2026-05-01 13:16 50.03452 8.53456 338 ft 20 kts 250°
2026-05-01 13:17 50.03317 8.52890 331 ft 17 kts 250°
2026-05-01 13:17 50.03290 8.52779 330 ft 16 kts 249°
2026-05-01 13:18 50.03147 8.52596 334 ft 18 kts 180°
2026-05-01 13:18 50.02553 8.52603 332 ft 119 kts 180°
2026-05-01 13:18 50.01486 8.52615 331 ft 184 kts 179°
2026-05-01 13:18 50.00579 8.52622 665 ft 195 kts 175°
2026-05-01 13:19 49.99244 8.52662 1767 ft 191 kts 174°
2026-05-01 13:19 49.97911 8.52751 2222 ft 203 kts 173°
2026-05-01 13:19 49.94810 8.52996 2992 ft 228 kts 174°
2026-05-01 13:20 49.93219 8.53114 3809 ft 226 kts 175°
2026-05-01 13:20 49.91651 8.53228 4640 ft 225 kts 175°
2026-05-01 13:20 49.90110 8.53338 5465 ft 225 kts 175°
2026-05-01 13:21 49.86830 8.53342 6424 ft 256 kts 181°
2026-05-01 13:21 49.85013 8.53171 7020 ft 264 kts 182°
2026-05-01 13:21 49.83166 8.52974 7756 ft 268 kts 182°
2026-05-01 13:21 49.81290 8.52771 8480 ft 271 kts 183°
2026-05-01 13:22 49.79392 8.52572 9237 ft 274 kts 182°
2026-05-01 13:22 49.77473 8.52378 9939 ft 278 kts 182°
2026-05-01 13:22 49.75533 8.52190 10587 ft 283 kts 182°
2026-05-01 13:22 49.73494 8.51998 10772 ft 305 kts 182°
2026-05-01 13:23 49.71326 8.51792 10911 ft 327 kts 182°
2026-05-01 13:23 49.69004 8.51570 11229 ft 340 kts 182°
2026-05-01 13:23 49.66617 8.51340 11795 ft 346 kts 182°
2026-05-01 13:23 49.64193 8.51106 12400 ft 350 kts 181°
2026-05-01 13:24 49.61748 8.50872 13002 ft 355 kts 181°
2026-05-01 13:24 49.59273 8.50636 13600 ft 359 kts 181°
2026-05-01 13:24 49.56759 8.50399 14214 ft 363 kts 181°
2026-05-01 13:25 49.51662 8.49925 15318 ft 370 kts 181°
2026-05-01 13:25 49.49084 8.49681 15878 ft 373 kts 181°
2026-05-01 13:25 49.46480 8.49432 16430 ft 376 kts 181°
2026-05-01 13:25 49.43858 8.49182 16988 ft 379 kts 181°
2026-05-01 13:26 49.41218 8.48932 17528 ft 381 kts 181°
2026-05-01 13:26 49.38559 8.48684 18064 ft 385 kts 181°
2026-05-01 13:26 49.35876 8.48435 18596 ft 387 kts 181°
2026-05-01 13:26 49.33176 8.48182 19041 ft 390 kts 182°
2026-05-01 13:27 49.30460 8.47920 19483 ft 393 kts 182°
2026-05-01 13:27 49.27720 8.47602 19918 ft 396 kts 183°
2026-05-01 13:27 49.22222 8.46854 20778 ft 402 kts 183°
2026-05-01 13:28 49.16606 8.46075 21633 ft 408 kts 183°
2026-05-01 13:28 49.13725 8.45689 22055 ft 412 kts 183°
2026-05-01 13:29 49.08018 8.44954 22836 ft 418 kts 183°
2026-05-01 13:29 49.02250 8.43326 23575 ft 426 kts 191°
2026-05-01 13:30 48.90528 8.39233 24956 ft 437 kts 192°
2026-05-01 13:31 48.84573 8.37169 25612 ft 442 kts 192°
2026-05-01 13:31 48.75507 8.34019 26608 ft 448 kts 193°
2026-05-01 13:32 48.69416 8.31788 27246 ft 453 kts 193°
2026-05-01 13:33 48.60167 8.28372 28140 ft 459 kts 193°
2026-05-01 13:33 48.53961 8.26118 28715 ft 463 kts 193°
2026-05-01 13:34 48.47652 8.23839 29292 ft 467 kts 193°
2026-05-01 13:34 48.41303 8.21525 29902 ft 470 kts 193°
2026-05-01 13:35 48.34960 8.19203 30654 ft 468 kts 193°
2026-05-01 13:35 48.31797 8.18049 30995 ft 467 kts 193°
2026-05-01 13:35 48.25503 8.15677 31686 ft 465 kts 198°
2026-05-01 13:36 48.22501 8.13889 32054 ft 464 kts 206°
2026-05-01 13:36 48.19618 8.11751 32420 ft 462 kts 206°
2026-05-01 13:36 48.13904 8.07507 33140 ft 460 kts 206°
2026-05-01 13:37 48.11036 8.05384 33498 ft 459 kts 206°
2026-05-01 13:37 48.08175 8.03272 33859 ft 457 kts 206°
2026-05-01 13:37 48.05328 8.01177 34220 ft 456 kts 206°
2026-05-01 13:37 48.02483 7.99088 34539 ft 454 kts 206°
2026-05-01 13:38 47.96820 7.94929 35123 ft 452 kts 206°
2026-05-01 13:38 47.94000 7.92862 35257 ft 451 kts 206°
2026-05-01 13:39 47.88427 7.88790 35282 ft 447 kts 206°
2026-05-01 13:39 47.82852 7.84730 35280 ft 446 kts 206°
2026-05-01 13:40 47.77282 7.80682 35280 ft 445 kts 206°
2026-05-01 13:40 47.71714 7.76641 35279 ft 445 kts 206°
2026-05-01 13:41 47.66149 7.72611 35275 ft 445 kts 206°
2026-05-01 13:41 47.60587 7.68583 35281 ft 445 kts 206°
2026-05-01 13:42 47.55022 7.64564 35284 ft 444 kts 206°
2026-05-01 13:42 47.51055 7.61719 35288 ft 444 kts 206°
2026-05-01 13:43 47.45536 7.57758 35289 ft 443 kts 206°
2026-05-01 13:43 47.39991 7.53782 35286 ft 443 kts 206°
2026-05-01 13:44 47.34447 7.49820 35283 ft 442 kts 206°
2026-05-01 13:44 47.28910 7.45863 35285 ft 442 kts 206°
2026-05-01 13:45 47.23376 7.41929 35281 ft 441 kts 206°
2026-05-01 13:45 47.17983 7.37758 35278 ft 441 kts 215°
2026-05-01 13:46 47.13550 7.31628 35272 ft 439 kts 232°
2026-05-01 13:46 47.09759 7.24591 35270 ft 439 kts 231°
2026-05-01 13:47 47.05934 7.17581 35272 ft 439 kts 231°
2026-05-01 13:47 47.02120 7.10601 35291 ft 438 kts 231°
2026-05-01 13:48 46.98312 7.03630 35276 ft 438 kts 231°
2026-05-01 13:48 46.94507 6.96675 35271 ft 437 kts 231°
2026-05-01 13:49 46.90543 6.89943 35272 ft 436 kts 222°
2026-05-01 13:49 46.85861 6.84310 35268 ft 436 kts 219°
2026-05-01 13:50 46.81161 6.78711 35270 ft 435 kts 219°
2026-05-01 13:50 46.76471 6.73119 35275 ft 435 kts 219°
2026-05-01 13:51 46.71812 6.67583 35277 ft 435 kts 219°
2026-05-01 13:51 46.67121 6.62031 35282 ft 434 kts 219°
2026-05-01 13:52 46.62429 6.56493 35282 ft 434 kts 219°
2026-05-01 13:52 46.57822 6.51079 35285 ft 434 kts 219°
2026-05-01 13:53 46.53162 6.45591 35278 ft 433 kts 219°
2026-05-01 13:53 46.46124 6.37342 35278 ft 433 kts 219°
2026-05-01 13:54 46.41419 6.31858 35281 ft 433 kts 219°
2026-05-01 13:54 46.36723 6.26389 35277 ft 433 kts 220°
2026-05-01 13:55 46.32014 6.20912 35277 ft 433 kts 220°
2026-05-01 13:55 46.27212 6.15630 35280 ft 435 kts 212°
2026-05-01 13:56 46.21597 6.12395 35276 ft 439 kts 193°
2026-05-01 13:56 46.15553 6.11033 35271 ft 440 kts 191°
2026-05-01 13:57 46.10522 6.09930 35262 ft 441 kts 191°
2026-05-01 13:57 46.03456 6.08354 35262 ft 442 kts 191°
2026-05-01 13:58 45.97377 6.06996 35260 ft 442 kts 191°
2026-05-01 13:58 45.91290 6.05661 35255 ft 443 kts 191°
2026-05-01 13:59 45.85181 6.04325 35254 ft 444 kts 191°
2026-05-01 13:59 45.79064 6.02969 35253 ft 445 kts 191°
2026-05-01 14:00 45.72949 6.01616 35238 ft 445 kts 191°
2026-05-01 14:00 45.66861 6.00279 35230 ft 445 kts 191°
2026-05-01 14:01 45.60723 5.98929 35235 ft 445 kts 191°
2026-05-01 14:01 45.54591 5.97584 35232 ft 445 kts 191°
2026-05-01 14:02 45.48466 5.96244 35237 ft 445 kts 191°
2026-05-01 14:02 45.42433 5.94625 35248 ft 443 kts 195°
2026-05-01 14:03 45.36425 5.92639 35252 ft 443 kts 196°
2026-05-01 14:03 45.30414 5.90646 35259 ft 444 kts 195°
2026-05-01 14:04 45.24388 5.88753 35257 ft 443 kts 195°
2026-05-01 14:04 45.19378 5.87216 35258 ft 443 kts 195°
2026-05-01 14:05 45.12325 5.85057 35256 ft 443 kts 195°
2026-05-01 14:05 45.06306 5.83193 35253 ft 443 kts 195°
2026-05-01 14:06 45.01284 5.81633 35255 ft 443 kts 195°
2026-05-01 14:06 44.94278 5.79471 35258 ft 443 kts 195°
2026-05-01 14:07 44.89223 5.77922 35259 ft 443 kts 195°
2026-05-01 14:08 44.80206 5.75174 35267 ft 444 kts 195°
2026-05-01 14:08 44.74170 5.73322 35270 ft 444 kts 195°
2026-05-01 14:09 44.68135 5.71476 35272 ft 443 kts 195°
2026-05-01 14:09 44.62101 5.69640 35277 ft 444 kts 195°
2026-05-01 14:10 44.56062 5.67812 35275 ft 443 kts 195°
2026-05-01 14:10 44.50022 5.65987 35277 ft 443 kts 195°
2026-05-01 14:11 44.44029 5.64176 35284 ft 444 kts 194°
2026-05-01 14:11 44.35144 5.60786 35289 ft 440 kts 204°
2026-05-01 14:12 44.29439 5.57643 35292 ft 440 kts 204°
2026-05-01 14:12 44.23734 5.54525 35286 ft 440 kts 204°
2026-05-01 14:13 44.18026 5.51419 35293 ft 440 kts 204°
2026-05-01 14:13 44.12330 5.48311 35291 ft 440 kts 204°
2026-05-01 14:14 44.06631 5.45208 35295 ft 440 kts 204°
2026-05-01 14:14 44.00928 5.42113 35298 ft 440 kts 204°
2026-05-01 14:15 43.95264 5.39042 35291 ft 440 kts 204°
2026-05-01 14:15 43.89561 5.35958 35283 ft 440 kts 203°
2026-05-01 14:16 43.83850 5.32879 35281 ft 440 kts 203°
2026-05-01 14:16 43.78146 5.29804 35280 ft 440 kts 203°
2026-05-01 14:17 43.72440 5.26736 35273 ft 440 kts 203°
2026-05-01 14:17 43.66767 5.23693 35272 ft 440 kts 203°
2026-05-01 14:18 43.61026 5.20616 35273 ft 440 kts 203°
2026-05-01 14:18 43.56284 5.18080 35267 ft 439 kts 203°
2026-05-01 14:19 43.49658 5.14547 35276 ft 439 kts 203°
2026-05-01 14:19 43.43954 5.11515 35269 ft 439 kts 203°
2026-05-01 14:20 43.35793 5.06030 35278 ft 434 kts 217°
2026-05-01 14:21 43.30830 5.01315 35280 ft 433 kts 216°
2026-05-01 14:21 43.25855 4.96628 35291 ft 433 kts 216°
2026-05-01 14:22 43.18404 4.89648 35300 ft 432 kts 216°
2026-05-01 14:22 43.13478 4.85036 35297 ft 431 kts 216°
2026-05-01 14:23 43.08530 4.80416 35292 ft 430 kts 216°
2026-05-01 14:23 43.03452 4.76041 35295 ft 432 kts 211°
2026-05-01 14:24 42.98195 4.72047 35295 ft 431 kts 211°
2026-05-01 14:24 42.92950 4.68072 35289 ft 431 kts 211°
2026-05-01 14:25 42.87696 4.64104 35287 ft 431 kts 211°
2026-05-01 14:25 42.82485 4.60180 35285 ft 431 kts 211°
2026-05-01 14:26 42.74608 4.54255 35286 ft 431 kts 211°
2026-05-01 14:27 42.69361 4.50311 35287 ft 431 kts 211°
2026-05-01 14:27 42.64119 4.46373 35288 ft 430 kts 211°
2026-05-01 14:28 42.56258 4.40504 35287 ft 430 kts 211°
2026-05-01 14:28 42.51025 4.36598 35283 ft 429 kts 211°
2026-05-01 14:29 42.45798 4.32699 35282 ft 429 kts 211°
2026-05-01 14:30 42.35333 4.24925 35285 ft 429 kts 211°
2026-05-01 14:31 42.27486 4.19131 35279 ft 428 kts 211°
2026-05-01 14:31 42.22254 4.15269 35275 ft 428 kts 211°
2026-05-01 14:32 42.17059 4.11442 35270 ft 428 kts 211°
2026-05-01 14:32 42.11837 4.07607 35266 ft 428 kts 211°
2026-05-01 14:33 42.06609 4.03769 35263 ft 427 kts 211°
2026-05-01 14:33 42.01387 3.99938 35259 ft 427 kts 211°
2026-05-01 14:34 41.96165 3.96126 35255 ft 427 kts 211°
2026-05-01 14:34 41.90932 3.92333 35253 ft 427 kts 210°
2026-05-01 14:35 41.85635 3.88720 35254 ft 427 kts 209°
2026-05-01 14:35 41.80301 3.85208 35251 ft 427 kts 208°
2026-05-01 14:36 41.74980 3.81684 35250 ft 427 kts 209°
2026-05-01 14:36 41.69673 3.78126 35252 ft 426 kts 209°
2026-05-01 14:37 41.64372 3.74559 35251 ft 426 kts 209°
2026-05-01 14:37 41.59105 3.71043 35243 ft 426 kts 208°
2026-05-01 14:38 41.53797 3.67519 35242 ft 426 kts 208°
2026-05-01 14:38 41.48489 3.63998 35236 ft 425 kts 208°
2026-05-01 14:39 41.43193 3.60494 35231 ft 425 kts 208°
2026-05-01 14:39 41.37890 3.56974 35229 ft 426 kts 208°
2026-05-01 14:40 41.32586 3.53455 35220 ft 426 kts 208°
2026-05-01 14:40 41.27274 3.49946 35226 ft 427 kts 208°
2026-05-01 14:41 41.21946 3.46446 35225 ft 427 kts 208°
2026-05-01 14:41 41.16391 3.43602 35220 ft 431 kts 194°
2026-05-01 14:42 41.10542 3.42057 35217 ft 431 kts 193°
2026-05-01 14:42 41.04646 3.40500 35214 ft 432 kts 193°
2026-05-01 14:43 40.98738 3.38944 35213 ft 433 kts 193°
2026-05-01 14:43 40.92836 3.37381 35213 ft 433 kts 193°
2026-05-01 14:44 40.86921 3.35820 35211 ft 433 kts 193°
2026-05-01 14:44 40.78031 3.33508 35208 ft 434 kts 193°
2026-05-01 14:45 40.69155 3.31186 35215 ft 434 kts 193°
2026-05-01 14:46 40.63229 3.29637 35219 ft 433 kts 193°
2026-05-01 14:46 40.54400 3.27351 35220 ft 433 kts 193°
2026-05-01 14:47 40.48483 3.25804 35223 ft 433 kts 193°
2026-05-01 14:48 40.39619 3.23499 35224 ft 432 kts 193°
2026-05-01 14:48 40.30758 3.21214 35218 ft 432 kts 193°
2026-05-01 14:49 40.18991 3.18182 35219 ft 432 kts 193°
2026-05-01 14:50 40.07191 3.15163 35214 ft 432 kts 192°
2026-05-01 14:51 39.98331 3.12903 35215 ft 432 kts 193°
2026-05-01 14:52 39.89838 3.09342 35198 ft 428 kts 210°
2026-05-01 14:53 39.82046 3.03655 35191 ft 428 kts 210°
2026-05-01 14:53 39.76841 2.99883 35190 ft 428 kts 210°
2026-05-01 14:54 39.72510 2.96751 35199 ft 429 kts 210°
2026-05-01 14:54 39.67296 2.92974 35125 ft 429 kts 210°
2026-05-01 14:54 39.64692 2.91090 34872 ft 429 kts 210°
2026-05-01 14:55 39.61238 2.88589 34544 ft 429 kts 210°
2026-05-01 14:55 39.58636 2.86704 34310 ft 429 kts 210°
2026-05-01 14:55 39.56873 2.85431 34143 ft 429 kts 210°
2026-05-01 14:55 39.54255 2.83547 33860 ft 430 kts 210°
2026-05-01 14:56 39.51637 2.81668 33599 ft 431 kts 210°
2026-05-01 14:56 39.49013 2.79785 33336 ft 432 kts 210°
2026-05-01 14:56 39.46383 2.77884 33068 ft 433 kts 212°
2026-05-01 14:56 39.43949 2.75692 32811 ft 432 kts 220°
2026-05-01 14:57 39.41747 2.72975 32543 ft 432 kts 229°
2026-05-01 14:57 39.37977 2.66987 32034 ft 432 kts 231°
2026-05-01 14:57 39.36082 2.63980 31777 ft 431 kts 231°
2026-05-01 14:58 39.34186 2.60986 31527 ft 430 kts 231°
2026-05-01 14:58 39.32294 2.58006 31276 ft 428 kts 231°
2026-05-01 14:58 39.30410 2.55038 31029 ft 427 kts 231°
2026-05-01 14:58 39.28527 2.52065 30784 ft 426 kts 231°
2026-05-01 14:59 39.26662 2.49119 30334 ft 422 kts 231°
2026-05-01 14:59 39.24810 2.46191 29729 ft 420 kts 231°
2026-05-01 14:59 39.22974 2.43293 29197 ft 415 kts 231°
2026-05-01 14:59 39.21151 2.40422 28651 ft 412 kts 231°
2026-05-01 15:00 39.17554 2.34754 27598 ft 405 kts 231°
2026-05-01 15:00 39.15779 2.31960 27089 ft 402 kts 231°
2026-05-01 15:00 39.14017 2.29192 26573 ft 398 kts 231°
2026-05-01 15:01 39.12265 2.26441 26079 ft 395 kts 231°
2026-05-01 15:01 39.10548 2.23748 25587 ft 392 kts 230°
2026-05-01 15:01 39.08822 2.21047 25111 ft 389 kts 230°
2026-05-01 15:01 39.07112 2.18369 24659 ft 385 kts 230°
2026-05-01 15:02 39.05420 2.15721 24203 ft 382 kts 230°
2026-05-01 15:02 39.04281 2.13944 23897 ft 380 kts 230°
2026-05-01 15:02 39.02071 2.10500 23267 ft 374 kts 230°
2026-05-01 15:02 39.00425 2.07938 22849 ft 369 kts 230°
2026-05-01 15:03 38.98792 2.05404 22418 ft 364 kts 230°
2026-05-01 15:03 38.97188 2.02908 22009 ft 360 kts 230°
2026-05-01 15:03 38.95604 2.00441 21591 ft 356 kts 230°
2026-05-01 15:03 38.94033 1.97999 21169 ft 353 kts 230°
2026-05-01 15:04 38.92481 1.95579 20757 ft 350 kts 231°
2026-05-01 15:04 38.91137 1.93002 20332 ft 348 kts 241°
2026-05-01 15:04 38.90185 1.90161 19916 ft 346 kts 251°
2026-05-01 15:04 38.89563 1.87187 19489 ft 344 kts 255°
2026-05-01 15:05 38.88960 1.84214 19063 ft 343 kts 254°
2026-05-01 15:05 38.88355 1.81268 18639 ft 341 kts 254°
2026-05-01 15:05 38.87746 1.78324 18180 ft 340 kts 254°
2026-05-01 15:05 38.87140 1.75402 17752 ft 337 kts 254°
2026-05-01 15:06 38.86540 1.72505 17342 ft 335 kts 255°
2026-05-01 15:06 38.85972 1.69760 16947 ft 333 kts 255°
2026-05-01 15:06 38.85381 1.66899 16539 ft 330 kts 255°
2026-05-01 15:06 38.84795 1.64057 16134 ft 328 kts 255°
2026-05-01 15:07 38.84213 1.61235 15738 ft 327 kts 255°
2026-05-01 15:07 38.83629 1.58427 15338 ft 325 kts 255°
2026-05-01 15:07 38.83022 1.55639 14939 ft 324 kts 254°
2026-05-01 15:07 38.82404 1.52872 14544 ft 322 kts 254°
2026-05-01 15:08 38.81794 1.50148 14148 ft 322 kts 254°
2026-05-01 15:08 38.81178 1.47398 13723 ft 321 kts 254°
2026-05-01 15:08 38.80562 1.44652 13307 ft 319 kts 254°
2026-05-01 15:08 38.79777 1.42015 12909 ft 317 kts 243°
2026-05-01 15:09 38.78751 1.39530 12593 ft 311 kts 242°
2026-05-01 15:09 38.77754 1.37128 12463 ft 297 kts 242°
2026-05-01 15:09 38.76818 1.34877 12216 ft 279 kts 242°
2026-05-01 15:09 38.75920 1.32715 12074 ft 270 kts 243°
2026-05-01 15:10 38.75047 1.30605 11828 ft 266 kts 243°
2026-05-01 15:10 38.73342 1.26486 11327 ft 259 kts 243°
2026-05-01 15:10 38.72500 1.24460 11085 ft 258 kts 243°
2026-05-01 15:11 38.71654 1.22435 10844 ft 257 kts 242°
2026-05-01 15:11 38.69978 1.18434 10371 ft 256 kts 242°
2026-05-01 15:11 38.69140 1.16432 10066 ft 255 kts 242°
2026-05-01 15:12 38.68292 1.14405 9700 ft 254 kts 242°
2026-05-01 15:12 38.66643 1.10453 9029 ft 252 kts 242°
2026-05-01 15:12 38.65816 1.08476 8693 ft 252 kts 242°
2026-05-01 15:13 38.64146 1.02244 7771 ft 248 kts 262°
2026-05-01 15:14 38.64248 0.97945 7213 ft 241 kts 296°
2026-05-01 15:14 38.65239 0.96295 6982 ft 234 kts 321°
2026-05-01 15:14 38.68245 0.95308 6571 ft 229 kts 12°
2026-05-01 15:15 38.70741 0.97624 5977 ft 228 kts 60°
2026-05-01 15:15 38.72224 1.01172 5401 ft 223 kts 60°
2026-05-01 15:16 38.73693 1.04679 4899 ft 222 kts 60°
2026-05-01 15:16 38.75149 1.08157 4380 ft 221 kts 60°
2026-05-01 15:17 38.76576 1.11572 3895 ft 212 kts 61°
2026-05-01 15:18 38.78606 1.16434 3347 ft 193 kts 61°
2026-05-01 15:18 38.79222 1.17910 3117 ft 183 kts 61°
2026-05-01 15:19 38.80929 1.22008 2427 ft 167 kts 61°
2026-05-01 15:19 38.82004 1.24591 2004 ft 164 kts 62°
2026-05-01 15:19 38.82540 1.25878 1779 ft 162 kts 62°
2026-05-01 15:20 38.83537 1.28277 1372 ft 146 kts 62°
2026-05-01 15:20 38.84010 1.29416 1168 ft 143 kts 62°
2026-05-01 15:20 38.84476 1.30543 991 ft 142 kts 62°
2026-05-01 15:21 38.84939 1.31662 808 ft 142 kts 62°
2026-05-01 15:21 38.85406 1.32784 617 ft 142 kts 63°
2026-05-01 15:21 38.85872 1.33903 439 ft 142 kts 63°
2026-05-01 15:21 38.86336 1.35023 255 ft 141 kts 63°
2026-05-01 15:22 38.87125 1.36930 9 ft 105 kts 62°
2026-05-01 15:22 38.87486 1.37842 8 ft 123 kts 61°
2026-05-01 15:22 38.87688 1.38286 6 ft 22 kts 61°
2026-05-01 15:23 38.87772 1.38490 5 ft 31 kts 63°
2026-05-01 15:23 38.87858 1.38673 3 ft 17 kts 40°
2026-05-01 15:23 38.87955 1.38663 8 ft 13 kts 333°
2026-05-01 15:23 38.87995 1.38591 8 ft 10 kts 261°
2026-05-01 15:24 38.87970 1.38515 9 ft 9 kts 241°
2026-05-01 15:24 38.87967 1.38508 9 ft 0 kts 241°
2026-05-01 15:24 38.87953 1.38476 9 ft 9 kts 242°
2026-05-01 15:24 38.87911 1.38373 8 ft 18 kts 242°
2026-05-01 15:25 38.87844 1.38213 8 ft 21 kts 242°
2026-05-01 15:25 38.87778 1.38051 8 ft 20 kts 242°
2026-05-01 15:25 38.87714 1.37895 8 ft 19 kts 242°
2026-05-01 15:25 38.87651 1.37745 8 ft 19 kts 241°
2026-05-01 15:26 38.87593 1.37610 8 ft 9 kts 241°
2026-05-01 15:26 38.87601 1.37549 8 ft 7 kts 318°
2026-05-01 15:26 38.87645 1.37515 8 ft 10 kts 330°
2026-05-01 15:26 38.87695 1.37446 8 ft 11 kts 274°
2026-05-01 15:27 38.87668 1.37359 10 ft 12 kts 243°
2026-05-01 15:27 38.87617 1.37236 8 ft 18 kts 242°
2026-05-01 15:27 38.87559 1.37094 8 ft 18 kts 242°
2026-05-01 15:28 38.87455 1.36842 8 ft 11 kts 242°
2026-05-01 15:28 38.87446 1.36790 8 ft 4 kts 304°
2026-05-01 15:28 38.87470 1.36783 8 ft 6 kts
2026-05-01 15:29 38.87502 1.36794 8 ft 0 kts 17°